[[{"header":{"parameterUnit":"m.s-1","parameterCategory":1,"la1":30.2991,"la2":30.254,"lo1":-89.0895,"lo2":-89.0444,"dy":0.0017,"dx":0.0017,"nx":28,"ny":28,"refTime":"2024-08-23T09:00:00:Z","depth":0,"parameterNumber":2,"parameterNumberName":"U-component_of_WINDS"},"data":[0,0,0,0,0,0,0,0,0,0,0,0,0,0,0,0,0,0,0,0,0,0,0,0,0,0,0,0,0,0,0,0,0,0,0,0,0,0,0,0,0,0,0,0,0,0,0,0,0,0,0,0,0,0,0,0,0,0,-5.8711,-5.8711,0,-5.871,-5.871,-5.871,-5.8509,-5.8504,-5.8499,-5.8494,-5.8495,-5.85,-5.8505,0,0,0,0,0,0,0,0,0,0,0,0,0,-5.8542,-5.8546,-5.8711,-5.8711,-5.8711,-5.871,-5.871,-5.871,-5.851,-5.8504,-5.8497,-5.8491,-5.8493,-5.8499,-5.8505,0,0,0,0,0,0,0,0,0,0,0,0,0,-5.8586,-5.8548,-5.8711,-5.8611,-5.8602,-5.871,-5.871,-5.871,-5.8512,-5.8504,-5.8496,-5.8488,-5.8491,-5.8499,-5.8506,-5.8709,0,0,-5.8528,-5.8532,0,0,0,0,0,0,0,0,-5.8584,-5.8592,-5.8626,-5.8618,-5.8609,-5.8601,-5.865,-5.871,-5.8514,-5.8546,-5.8494,-5.8485,-5.8537,-5.854,-5.8557,-5.8709,-5.8709,-5.8529,-5.8534,-5.8537,-5.8539,0,0,0,0,0,0,0,-5.8581,-5.8591,-5.8711,-5.8627,-5.8616,-5.8567,-5.8564,-5.8661,-5.8586,-5.8543,-5.8528,-5.8531,-5.8531,-5.8551,-5.8556,-5.8709,-5.8529,-5.8535,-5.854,-5.8543,-5.9026,-5.9034,0,0,0,0,0,0,-5.8591,-5.859,-5.8711,-5.8711,-5.8576,-5.8576,-5.8574,-5.8612,-5.8584,-5.8572,-5.8537,-5.8521,-5.8542,-5.8547,-5.8555,-5.8789,-5.8537,-5.8544,-5.8548,-5.9018,-5.9028,-5.9037,0,0,0,0,0,0,-5.8588,-5.8604,-5.8711,-5.8646,-5.8656,-5.8588,-5.8632,-5.8616,-5.8635,-5.858,-5.8566,-5.8571,-5.8536,-5.8545,-5.8672,-5.8787,-5.8547,-5.8554,-5.9008,-5.9021,-5.9032,-5.9261,0,0,0,0,0,0,-5.8585,-5.8604,-5.8681,-5.865,-5.866,-5.8828,-5.8639,-5.8622,-5.8649,-5.8628,-5.8608,-5.8598,-5.853,-5.8662,-5.8679,-5.8792,-5.8559,-5.8997,-5.9014,-5.9028,-5.9243,-5.928,-5.9312,0,0,0,0,0,-5.8579,-5.8746,-5.8686,-5.8701,-5.8755,-5.8835,-5.8841,-5.876,-5.8659,-5.8735,-5.8699,-5.8598,-5.8772,-5.8677,-5.8694,-5.8812,-5.899,-5.9009,-5.9027,-5.9228,-5.9273,-5.9311,0,0,0,0,0,0,-5.8794,-5.874,-5.8673,-5.8835,-5.8841,-5.8801,-5.8894,-5.881,-5.8846,-5.8825,-5.8723,-5.872,-5.8863,-5.885,-5.8745,-5.9006,-5.8863,-5.8886,-5.9009,-5.9052,-5.9085,-5.9085,-5.8566,0,0,0,0,0,-5.886,-5.8929,-5.8879,-5.9027,-5.9033,-5.8964,-5.8996,-5.8933,-5.8935,-5.8937,-5.891,-5.8917,-5.8972,-5.9012,-5.906,-5.9241,-5.9233,-5.933,-5.9365,-5.9393,-5.9414,-5.9507,-5.9549,-5.9099,-5.9099,-5.9099,0,0,-5.8998,-5.8977,-5.9027,-5.907,-5.9067,-5.914,-5.8968,-5.9054,-5.9107,-5.895,-5.9067,-5.9049,-5.905,-5.9204,-5.9271,-5.9198,-5.9537,-5.9417,-5.944,-5.9446,-5.953,-5.9573,-5.9611,-5.9112,-5.911,-5.9107,0,0,-5.9285,-5.9278,-5.9398,-5.9399,-5.9396,-5.9349,-5.9378,-5.9351,-5.9332,-5.9448,-5.9331,-5.9394,-5.9493,-5.9497,-5.9513,-5.9801,-5.9709,-5.982,-5.9999,-6.0091,-6.0126,-6.0157,-6.0258,-6.0296,-5.9842,-5.9842,-5.9843,0,-5.9457,-5.9562,-5.9472,-5.9565,-5.9586,-5.9446,-5.9568,-5.9573,-5.9587,-5.9605,-5.9523,-5.9642,-5.9634,-5.9786,-5.9856,-5.9874,-5.9904,-5.9821,-6.0128,-6.0158,-6.0186,-6.0281,-6.0319,-5.9856,-5.9854,-5.9853,-5.9851,0,-5.9772,-5.9848,-5.9946,-5.9961,-5.9994,-6.0101,-6.0026,-6.0071,-6.0005,-5.9966,-6.0085,-6.007,-6.0111,-6.0143,-6.008,-6.0287,-6.0241,-6.0146,-5.9999,-6.0243,-6.0331,-6.0367,-5.9875,-5.987,-5.9866,-5.9863,0,0,-6.0195,-6.0157,-6.0195,-6.0199,-6.0186,-6.0242,-6.0343,-6.0382,-6.0421,-6.0436,-6.0517,-6.0603,-6.0514,-6.0532,-6.0468,-6.0549,-6.0776,-6.0443,-6.0441,-6.0503,-6.1,-6.1071,-6.1115,-6.0716,-6.0722,-6.0728,-6.0999,0,-6.0471,-6.0639,-6.056,-6.0737,-6.0805,-6.0673,-6.076,-6.0762,-6.0729,-6.0781,-6.0744,-6.0806,-6.0685,-6.0694,-6.0769,-6.0733,-6.0874,-6.0713,-6.0789,-6.0793,-6.0791,-6.116,-6.1235,-6.1493,-6.1033,-6.1039,-6.1043,0,-6.0816,-6.0843,-6.1027,-6.0999,-6.1024,-6.1104,-6.1133,-6.1185,-6.1184,-6.1154,-6.1174,-6.1091,-6.1188,-6.1044,-6.1175,-6.1067,-6.1094,-6.1081,-6.1089,-6.1091,-6.0932,-6.1171,-6.1573,-6.1611,-6.1097,-6.1093,-6.1089,0,-6.1103,-6.1186,-6.1305,-6.1313,-6.1285,-6.1344,-6.1335,-6.1325,-6.1354,-6.138,-6.1397,-6.1435,-6.1455,-6.1486,-6.1416,-6.1318,-6.1556,-6.1407,-6.1533,-6.1535,-6.1588,-6.1585,-6.1998,-6.161,-6.1609,-6.1608,-6.1608,0,-6.1418,-6.1535,-6.1433,-6.1507,-6.1634,-6.1542,-6.167,-6.1647,-6.164,-6.1707,-6.1596,-6.1662,-6.1566,-6.1622,-6.1568,-6.1683,-6.1694,-6.1672,-6.1656,-6.168,-6.1683,-6.1695,-6.1674,-6.1619,-6.1616,-6.1614,-6.1613,0,-6.1759,-6.1696,-6.1817,-6.178,-6.1773,-6.1868,-6.1836,-6.1902,-6.1861,-6.1947,-6.1962,-6.1898,-6.1958,-6.1891,-6.1947,-6.191,-6.2066,-6.2025,-6.2066,-6.2053,-6.2182,-6.217,-6.2615,-6.2668,-6.2249,-6.2253,-6.2257,0,-6.1963,-6.205,-6.2021,-6.2057,-6.2054,-6.2115,-6.2142,-6.2056,-6.2089,-6.2093,-6.216,-6.221,-6.2245,-6.2347,-6.2306,-6.2347,-6.2305,-6.2458,-6.231,-6.2332,-6.2304,-6.2299,-6.2306,-6.2487,-6.2493,-6.2497,-6.25,0,-6.2332,-6.2296,-6.2339,-6.2372,-6.2408,-6.243,-6.2444,-6.248,-6.239,-6.2433,-6.2492,-6.252,-6.2575,-6.2626,-6.2656,-6.2646,-6.2559,-6.2547,-6.2578,-6.2603,-6.2622,-6.2611,-6.2145,-6.2537,-6.2533,-6.253,-6.2528,-6.2527,-6.2609,-6.2678,-6.2668,-6.272,-6.2721,-6.2736,-6.2796,-6.2762,-6.2809,-6.2846,-6.2793,-6.2867,-6.2862,-6.2892,-6.2893,-6.2949,-6.2884,-6.293,-6.294,-6.2952,-6.297,-6.2615,-6.2955,-6.2954,-6.2953,-6.2952,-6.2951,0,-6.2969,-6.2956,-6.3004,-6.3026,-6.3067,-6.298,-6.299,-6.303,-6.3096,-6.3099,-6.3135,-6.3203,-6.3251,-6.3214,-6.3255,-6.3307,-6.3267,-6.332,-6.3314,-6.3313,-6.3028,-6.2996,-6.3351,-6.3351,-6.3351,-6.3351,-6.3351,-6.3351,-6.3161,-6.3273,-6.3236,-6.3348,-6.3334,-6.3404,-6.3417,-6.343,-6.3431,-6.3511,-6.355,-6.3525,-6.3512,-6.3551,-6.3591,-6.3579,-6.3598,-6.3665,-6.3639,-6.3373,-6.3333,-6.3296,-6.3265,-6.3671,-6.3671,-6.3918,-6.3921,-6.3922]},{"header":{"parameterUnit":"m.s-1","parameterCategory":1,"la1":30.2991,"la2":30.254,"lo1":-89.0895,"lo2":-89.0444,"dy":0.0017,"dx":0.0017,"nx":28,"ny":28,"refTime":"2024-08-23T09:00:00:Z","depth":0,"parameterNumber":3,"parameterNumberName":"V-component_of_WINDS"},"data":[0,0,0,0,0,0,0,0,0,0,0,0,0,0,0,0,0,0,0,0,0,0,0,0,0,0,0,0,0,0,0,0,0,0,0,0,0,0,0,0,0,0,0,0,0,0,0,0,0,0,0,0,0,0,0,0,0,0,-1.8067,-1.8067,0,-1.8104,-1.8104,-1.8105,-1.8148,-1.8148,-1.8149,-1.815,-1.8185,-1.8185,-1.8185,0,0,0,0,0,0,0,0,0,0,0,0,0,-1.803,-1.8031,-1.8067,-1.8067,-1.8068,-1.8104,-1.8104,-1.8105,-1.8147,-1.8148,-1.8149,-1.815,-1.8184,-1.8185,-1.8185,0,0,0,0,0,0,0,0,0,0,0,0,0,-1.8054,-1.8031,-1.8067,-1.8094,-1.8096,-1.8104,-1.8104,-1.8105,-1.8147,-1.8148,-1.8149,-1.815,-1.8184,-1.8185,-1.8185,-1.8168,0,0,-1.8187,-1.8187,0,0,0,0,0,0,0,0,-1.8053,-1.8056,-1.8089,-1.8092,-1.8095,-1.8122,-1.8104,-1.8126,-1.8147,-1.8128,-1.815,-1.8151,-1.8163,-1.8165,-1.817,-1.817,-1.8171,-1.8187,-1.8187,-1.8187,-1.8187,0,0,0,0,0,0,0,-1.8051,-1.8054,-1.8081,-1.809,-1.8093,-1.8103,-1.8107,-1.8108,-1.8139,-1.813,-1.8133,-1.8137,-1.8165,-1.8169,-1.8171,-1.8172,-1.8187,-1.8187,-1.8187,-1.8188,-1.8157,-1.8156,0,0,0,0,0,0,-1.8046,-1.8053,-1.808,-1.8083,-1.8076,-1.8102,-1.8107,-1.8112,-1.8139,-1.8144,-1.8136,-1.8139,-1.8168,-1.817,-1.8172,-1.8152,-1.8187,-1.8188,-1.8188,-1.8158,-1.8157,-1.8155,0,0,0,0,0,0,-1.8045,-1.8048,-1.8079,-1.8068,-1.8073,-1.8102,-1.8107,-1.8113,-1.8117,-1.8144,-1.8149,-1.8135,-1.8169,-1.8172,-1.8168,-1.8154,-1.8188,-1.8188,-1.8159,-1.8158,-1.8156,-1.8112,0,0,0,0,0,0,-1.8044,-1.8047,-1.8042,-1.8068,-1.8074,-1.8075,-1.8106,-1.8113,-1.8118,-1.8122,-1.8145,-1.8149,-1.817,-1.8167,-1.8169,-1.8155,-1.8189,-1.8161,-1.8159,-1.8157,-1.8114,-1.8109,-1.8104,0,0,0,0,0,-1.8042,-1.8028,-1.8042,-1.8045,-1.8068,-1.8074,-1.8077,-1.8102,-1.8117,-1.8111,-1.8128,-1.8149,-1.8156,-1.8167,-1.8169,-1.8155,-1.8162,-1.8159,-1.8157,-1.8117,-1.811,-1.8104,0,0,0,0,0,0,-1.7999,-1.8032,-1.8047,-1.8042,-1.8055,-1.8082,-1.8075,-1.8094,-1.8102,-1.8106,-1.8135,-1.8139,-1.8132,-1.8144,-1.8155,-1.8138,-1.8161,-1.8159,-1.813,-1.8124,-1.8119,-1.8115,-1.8189,0,0,0,0,0,-1.799,-1.7993,-1.8021,-1.8013,-1.8019,-1.8046,-1.805,-1.8067,-1.8082,-1.8087,-1.8104,-1.8117,-1.8121,-1.8124,-1.813,-1.8117,-1.8121,-1.8108,-1.8103,-1.8098,-1.8095,-1.8086,-1.808,-1.8147,-1.8147,-1.8147,0,0,-1.7969,-1.7987,-1.7987,-1.8005,-1.8018,-1.8019,-1.805,-1.8051,-1.8052,-1.8087,-1.8085,-1.8097,-1.8113,-1.8104,-1.8101,-1.8114,-1.8078,-1.8095,-1.8091,-1.8091,-1.8083,-1.8077,-1.8071,-1.8146,-1.8146,-1.8146,0,0,-1.7931,-1.7946,-1.794,-1.7951,-1.797,-1.7987,-1.7986,-1.8009,-1.8019,-1.8017,-1.8043,-1.8044,-1.8053,-1.8062,-1.8067,-1.8031,-1.805,-1.8033,-1.8003,-1.7994,-1.7989,-1.7984,-1.7968,-1.7963,-1.803,-1.803,-1.803,0,-1.7902,-1.7906,-1.7934,-1.7933,-1.7938,-1.7971,-1.7964,-1.7974,-1.7992,-1.7995,-1.8009,-1.8018,-1.8032,-1.8024,-1.8015,-1.802,-1.8017,-1.8029,-1.7988,-1.7983,-1.7979,-1.7964,-1.7959,-1.8028,-1.8028,-1.8028,-1.8028,0,-1.7868,-1.7871,-1.7863,-1.788,-1.7886,-1.7882,-1.7907,-1.7909,-1.7926,-1.7942,-1.7938,-1.7955,-1.7963,-1.7964,-1.798,-1.7957,-1.7964,-1.7983,-1.8006,-1.797,-1.7956,-1.7951,-1.8024,-1.8025,-1.8026,-1.8026,0,0,-1.7804,-1.7836,-1.7832,-1.7839,-1.7861,-1.7863,-1.7859,-1.7868,-1.7868,-1.788,-1.7876,-1.7881,-1.7898,-1.7905,-1.7923,-1.7915,-1.7881,-1.7934,-1.7935,-1.7921,-1.7854,-1.7837,-1.783,-1.7895,-1.7894,-1.7893,-1.7851,0,-1.7767,-1.7763,-1.7787,-1.7776,-1.7777,-1.7807,-1.7804,-1.7816,-1.783,-1.7832,-1.7848,-1.785,-1.7874,-1.7877,-1.7871,-1.7887,-1.7868,-1.7891,-1.7889,-1.7888,-1.788,-1.7824,-1.7807,-1.7766,-1.7846,-1.7845,-1.7845,0,-1.7724,-1.7733,-1.7722,-1.7742,-1.7743,-1.774,-1.7748,-1.7751,-1.7764,-1.7775,-1.7782,-1.7802,-1.7798,-1.7823,-1.7816,-1.7831,-1.7832,-1.7839,-1.7838,-1.7836,-1.7862,-1.7817,-1.7754,-1.7746,-1.7837,-1.7838,-1.7838,0,-1.7674,-1.7684,-1.7677,-1.7683,-1.7707,-1.7703,-1.7713,-1.7728,-1.7731,-1.7739,-1.7741,-1.7748,-1.7751,-1.7755,-1.7776,-1.7793,-1.7766,-1.7793,-1.7772,-1.7771,-1.7763,-1.7762,-1.7695,-1.7769,-1.7769,-1.7769,-1.7769,0,-1.7629,-1.762,-1.7654,-1.765,-1.764,-1.7668,-1.7657,-1.767,-1.7682,-1.7679,-1.7708,-1.7704,-1.7734,-1.7734,-1.7751,-1.774,-1.7743,-1.7749,-1.7753,-1.7745,-1.7743,-1.7743,-1.7745,-1.7767,-1.7768,-1.7768,-1.7768,0,-1.757,-1.7594,-1.7588,-1.7611,-1.7617,-1.7608,-1.7628,-1.7623,-1.764,-1.7636,-1.7636,-1.7661,-1.7662,-1.7684,-1.769,-1.7701,-1.7682,-1.7694,-1.7677,-1.768,-1.7656,-1.7657,-1.7584,-1.7575,-1.7657,-1.7657,-1.7656,0,-1.7539,-1.7532,-1.7555,-1.7555,-1.7563,-1.7564,-1.7567,-1.7594,-1.7595,-1.761,-1.7603,-1.7606,-1.761,-1.7609,-1.7626,-1.763,-1.7639,-1.7614,-1.764,-1.7631,-1.7634,-1.7633,-1.7631,-1.7607,-1.7606,-1.7605,-1.7604,0,-1.7479,-1.749,-1.7494,-1.75,-1.7503,-1.751,-1.7518,-1.7516,-1.7546,-1.7546,-1.7547,-1.7549,-1.7555,-1.7556,-1.7563,-1.7572,-1.7591,-1.7597,-1.7591,-1.7581,-1.757,-1.7572,-1.7659,-1.7597,-1.7598,-1.7599,-1.7599,-1.7599,-1.743,-1.7425,-1.7439,-1.7441,-1.745,-1.7457,-1.7453,-1.7468,-1.747,-1.7476,-1.7492,-1.7489,-1.7501,-1.7513,-1.752,-1.7517,-1.753,-1.7523,-1.7521,-1.7517,-1.7511,-1.7573,-1.7519,-1.7519,-1.7519,-1.752,-1.752,0,-1.7369,-1.7379,-1.7381,-1.7391,-1.7392,-1.7413,-1.7422,-1.7421,-1.7419,-1.7429,-1.7431,-1.7431,-1.7432,-1.745,-1.7453,-1.7447,-1.7456,-1.7446,-1.7445,-1.7446,-1.7502,-1.7504,-1.7439,-1.7439,-1.7439,-1.7439,-1.7439,-1.7439,-1.7336,-1.7327,-1.734,-1.7334,-1.7345,-1.7342,-1.7345,-1.7351,-1.7358,-1.7357,-1.7358,-1.737,-1.7382,-1.7385,-1.7387,-1.7392,-1.739,-1.7376,-1.7384,-1.7435,-1.7443,-1.745,-1.7452,-1.7377,-1.7377,-1.7328,-1.7327,-1.7327]}]]